Location: Aghk�ilisa
(40.0189°N, 45.0097°E)
Time: 12:39:42
(UTC+00:00)

Cosmos 1461 - Pass Details

Date: 21 October 2019
Orbit: 524 x 644 km, 65.0° (Epoch: 14 November)

Event Time Altitude Azimuth Distance (km) Brightness Sun altitude
Rises 15:01:53 0° 334° (NNW) 2,713 6.6 -10.2°
Reaches altitude 10° 15:04:10 10° 342° (NNW) 1,834 5.7 -10.6°
Maximum altitude 15:08:05 42° 54° (NE) 816 3.3 -11.3°
Enters shadow 15:11:59 11° 125° (SE) 1,839 5.0 -12.1°
